EW9204 Weather Reports


time (UTC)temp
C
wind
direction
speed
KPH
gust
KPH
rain 1hr
cm
rain 24hr
cm
rain mn
cm
humidity
%
barometer
mb
20260503032518 9 328 4.8 16.1 0.00 0.10 0.10 51 1011.1
20260503032017 9 26 4.8 17.7 0.00 0.10 0.10 51 1011.1
20260503031531 9 48 6.4 17.7 0.00 0.10 0.10 51 1011.0
20260503031017 9 319 3.2 11.3 0.00 0.10 0.10 53 1010.9
20260503030514 9 93 3.2 11.3 0.00 0.10 0.10 53 1010.9
20260503030035 9 34 1.6 12.9 0.00 0.10 0.10 54 1011.0
20260503025514 9 328 3.2 12.9 0.00 0.10 0.10 53 1011.0
20260503025016 9 9 1.6 6.4 0.00 0.10 0.10 54 1010.9
20260503024539 9 22 1.6 6.4 0.00 0.10 0.10 54 1010.9
20260503024015 9 305 3.2 6.4 0.00 0.10 0.10 56 1010.9
20260503023516 9 76 1.6 6.4 0.00 0.10 0.10 53 1011.0
20260503023034 9 0 1.6 6.4 0.00 0.10 0.10 54 1011.0
20260503022519 9 342 0.0 4.8 0.00 0.10 0.10 54 1011.1
20260503022016 10 309 1.6 6.4 0.00 0.10 0.10 54 1011.2
20260503021533 10 34 0.0 6.4 0.00 0.10 0.10 53 1011.3
20260503021014 10 319 0.0 6.4 0.00 0.10 0.10 51 1011.4
20260503020516 10 30 1.6 6.4 0.00 0.10 0.10 52 1011.5
20260503020034 10 47 1.6 6.4 0.00 0.10 0.10 50 1011.4
20260503015519 10 337 1.6 6.4 0.00 0.10 0.10 50 1011.4
20260503015017 10 26 1.6 8.0 0.00 0.10 0.10 49 1011.5
20260503014532 10 36 3.2 14.5 0.00 0.10 0.10 49 1011.5
20260503014017 10 338 3.2 14.5 0.00 0.10 0.10 49 1011.4
20260503013517 10 0 3.2 14.5 0.00 0.10 0.10 48 1011.5
20260503013032 10 48 3.2 14.5 0.00 0.10 0.10 47 1011.4
20260503012517 10 36 3.2 12.9 0.00 0.10 0.10 47 1011.5
20260503012016 10 249 4.8 19.3 0.00 0.10 0.10 46 1011.5
20260503011534 10 9 3.2 19.3 0.00 0.10 0.10 46 1011.4
20260503011020 11 128 3.2 19.3 0.00 0.10 0.10 45 1011.3
20260503010514 11 300 4.8 14.5 0.00 0.10 0.10 44 1011.3
20260503010034 11 20 4.8 14.5 0.00 0.10 0.10 43 1011.2
20260503005516 11 15 3.2 12.9 0.00 0.10 0.10 43 1011.1
20260503005018 11 319 3.2 14.5 0.00 0.10 0.10 43 1011.1
20260503004534 11 319 3.2 14.5 0.00 0.10 0.10 43 1011.0
20260503004017 11 254 3.2 12.9 0.00 0.10 0.10 43 1010.9
20260503003515 11 303 3.2 12.9 0.00 0.10 0.10 44 1011.0
20260503003032 11 270 1.6 6.4 0.00 0.10 0.10 44 1010.9
20260503002515 11 313 1.6 9.7 0.00 0.10 0.10 45 1010.8
20260503002018 11 23 1.6 9.7 0.00 0.10 0.10 45 1010.9
20260503001530 11 13 1.6 8.0 0.00 0.10 0.10 45 1011.0
20260503001017 11 0 1.6 8.0 0.00 0.10 0.10 49 1010.9
20260503000514 11 26 1.6 6.4 0.00 0.10 0.10 47 1010.9
20260503000032 11 319 1.6 8.0 0.00 0.10 0.10 48 1010.9
20260502235514 11 325 1.6 8.0 0.00 0.10 0.10 48 1011.0
20260502235015 11 309 0.0 6.4 0.00 0.10 0.10 48 1010.9
20260502234536 11 316 1.6 6.4 0.00 0.10 0.10 46 1010.7
20260502234014 12 9 1.6 11.3 0.00 0.10 0.10 44 1010.6
20260502233517 12 0 1.6 11.3 0.00 0.10 0.10 42 1010.6
20260502233030 12 282 1.6 6.4 0.00 0.10 0.10 42 1010.5
20260502232514 12 9 1.6 11.3 0.00 0.10 0.10 42 1010.5
20260502232016 12 338 3.2 11.3 0.00 0.10 0.10 42 1010.5
20260502231537 12 291 3.2 11.3 0.00 0.10 0.10 42 1010.5
20260502231016 12 9 3.2 11.3 0.00 0.10 0.10 42 1010.3
20260502230516 12 298 1.6 6.4 0.00 0.10 0.10 45 1010.4
20260502230030 12 282 1.6 6.4 0.00 0.10 0.10 46 1010.5
20260502225518 12 0 0.0 4.8 0.00 0.10 0.10 45 1010.6
20260502225016 13 234 1.6 4.8 0.00 0.10 0.10 44 1010.5
20260502224532 13 0 0.0 4.8 0.00 0.10 0.10 44 1010.4
20260502224016 13 265 0.0 8.0 0.00 0.10 0.10 47 1010.4
20260502223515 13 93 0.0 8.0 0.00 0.10 0.10 42 1010.4
20260502223032 14 51 1.6 9.7 0.00 0.10 0.10 42 1010.4
20260502222516 14 301 3.2 9.7 0.00 0.10 0.10 40 1010.4
20260502222019 13 325 1.6 9.7 0.00 0.10 0.10 39 1010.5
20260502221536 13 9 3.2 11.3 0.00 0.10 0.10 39 1010.4
20260502221015 13 309 3.2 11.3 0.00 0.10 0.10 40 1010.2
20260502220517 13 247 3.2 11.3 0.00 0.10 0.10 39 1010.2
20260502220045 13 257 3.2 11.3 0.00 0.10 0.10 38 1010.2
20260502215515 13 216 3.2 19.3 0.00 0.10 0.10 38 1010.3
20260502215015 14 328 6.4 19.3 0.00 0.10 0.10 39 1010.2
20260502214533 15 321 4.8 17.7 0.00 0.10 0.10 39 1010.3
20260502214015 15 101 4.8 14.5 0.00 0.10 0.10 37 1010.3
20260502213515 15 325 4.8 12.9 0.00 0.10 0.10 39 1010.2
20260502213035 15 273 1.6 9.7 0.00 0.10 0.10 40 1010.2
20260502212520 15 221 3.2 9.7 0.00 0.10 0.10 41 1010.1
20260502212020 15 228 4.8 11.3 0.00 0.10 0.10 40 1010.2
20260502211533 15 9 3.2 11.3 0.00 0.10 0.10 38 1010.2
20260502211015 15 286 3.2 11.3 0.00 0.10 0.10 40 1010.1
20260502210516 15 305 1.6 11.3 0.00 0.10 0.10 42 1010.1
20260502210031 14 319 3.2 14.5 0.00 0.10 0.10 38 1010.1
20260502205515 14 338 6.4 14.5 0.00 0.10 0.10 37 1010.1
20260502205016 14 309 1.6 11.3 0.00 0.10 0.10 43 1010.1
20260502204535 14 280 3.2 9.7 0.00 0.10 0.10 46 1010.2
20260502204015 14 259 1.6 12.9 0.00 0.10 0.10 44 1010.2
20260502203521 14 67 3.2 17.7 0.00 0.10 0.10 42 1010.2
20260502203043 14 291 3.2 17.7 0.00 0.10 0.10 43 1010.3
20260502202517 14 325 6.4 17.7 0.00 0.10 0.10 40 1010.4
20260502202015 14 305 1.6 14.5 0.00 0.10 0.10 44 1010.4
20260502201538 14 214 6.4 14.5 0.00 0.10 0.10 43 1010.5
20260502201017 14 346 4.8 12.9 0.00 0.10 0.10 43 1010.6
20260502200515 14 71 4.8 12.9 0.00 0.10 0.10 43 1010.5
20260502200030 14 28 3.2 12.9 0.00 0.10 0.10 46 1010.8
20260502195517 13 15 4.8 14.5 0.00 0.10 0.10 45 1010.8
20260502195015 13 189 3.2 14.5 0.00 0.10 0.10 47 1010.8
20260502194540 13 300 6.4 14.5 0.00 0.10 0.10 48 1010.8
20260502194015 13 203 3.2 12.9 0.00 0.10 0.10 49 1011.0
20260502193518 13 341 4.8 16.1 0.00 0.10 0.10 51 1010.9
20260502193035 13 33 4.8 16.1 0.00 0.10 0.10 53 1011.0
20260502192519 13 329 4.8 16.1 0.00 0.10 0.10 62 1011.1
20260502192016 13 329 3.2 17.7 0.00 0.10 0.10 63 1011.2
20260502191540 12 329 6.4 17.7 0.00 0.10 0.10 63 1011.3
20260502191017 12 9 3.2 9.7 0.00 0.10 0.10 63 1011.3
20260502190515 12 57 3.2 16.1 0.00 0.10 0.10 61 1011.4
20260502190032 12 319 3.2 19.3 0.00 0.10 0.10 59 1011.4
20260502185517 12 347 6.4 19.3 0.00 0.10 0.10 58 1011.5
20260502185017 13 316 6.4 19.3 0.00 0.10 0.10 61 1011.6
20260502184538 12 9 3.2 19.3 0.00 0.10 0.10 65 1011.5
20260502184016 12 323 3.2 11.3 0.00 0.10 0.10 67 1011.6
20260502183519 12 0 3.2 9.7 0.00 0.10 0.10 64 1011.6
20260502183029 12 0 3.2 9.7 0.00 0.10 0.10 66 1011.7
20260502182519 12 41 3.2 11.3 0.00 0.10 0.10 68 1011.8
20260502182016 12 15 4.8 14.5 0.00 0.10 0.10 68 1011.9
20260502181537 12 106 4.8 14.5 0.00 0.10 0.10 69 1011.8
20260502181016 12 61 6.4 20.9 0.00 0.10 0.10 69 1011.9
20260502180515 12 22 8.0 20.9 0.00 0.10 0.10 67 1011.9
20260502170514 12 240 3.2 14.5 0.00 0.10 0.10 65 1012.2
20260502164017 12 303 3.2 9.7 0.00 0.10 0.10 65 1012.3
20260502163516 12 325 1.6 12.9 0.00 0.10 0.10 68 1012.2
20260502163048 12 306 4.8 12.9 0.00 0.10 0.10 65 1012.3
20260502162519 12 305 3.2 9.7 0.00 0.10 0.10 67 1012.3
20260502162020 12 338 1.6 12.9 0.00 0.10 0.10 71 1012.2
20260502161532 12 291 3.2 12.9 0.00 0.10 0.10 67 1012.3
20260502161016 12 287 4.8 12.9 0.00 0.10 0.10 68 1012.4
20260502160518 12 325 1.6 14.5 0.00 0.10 0.10 70 1012.5
20260502152014 11 305 4.8 12.9 0.00 0.10 0.10 76 1012.2
20260502151537 11 311 3.2 9.7 0.00 0.10 0.10 75 1012.3
20260502151015 11 309 3.2 9.7 0.00 0.10 0.10 76 1012.3
20260502150514 11 309 3.2 8.0 0.00 0.10 0.10 77 1012.3
20260502130517 10 265 1.6 4.8 0.00 0.10 0.10 90 1012.9
20260502123516 8 221 1.6 4.8 0.00 0.10 0.10 92 1012.5
20260502123034 8 265 0.0 3.2 0.00 0.10 0.10 93 1012.6
20260502122515 8 0 0.0 3.2 0.00 0.10 0.10 93 1012.5
20260502122016 8 334 0.0 4.8 0.00 0.10 0.10 93 1012.3
20260502121530 8 0 1.6 4.8 0.00 0.10 0.10 93 1012.3
20260502121017 8 319 1.6 3.2 0.00 0.10 0.10 93 1012.3
20260502120517 8 316 1.6 3.2 0.00 0.10 0.10 93 1012.3
20260502115519 8 164 0.0 3.2 0.00 0.10 0.10 94 1012.5
20260502115017 8 93 0.0 3.2 0.00 0.10 0.10 93 1012.4
20260502114536 8 68 0.0 3.2 0.00 0.10 0.10 93 1012.4
20260502114017 8 26 0.0 3.2 0.00 0.10 0.10 93 1012.4
20260502113517 8 83 0.0 3.2 0.00 0.10 0.10 94 1012.4
20260502113034 8 0 0.0 3.2 0.00 0.10 0.10 94 1012.4
20260502112514 8 0 0.0 3.2 0.00 0.10 0.10 94 1012.5
20260502112016 8 93 0.0 3.2 0.00 0.10 0.10 94 1012.2
20260502111532 8 9 0.0 3.2 0.00 0.10 0.10 94 1012.1
20260502111017 8 0 0.0 3.2 0.00 0.10 0.10 94 1012.0
20260502110515 7 93 0.0 3.2 0.00 0.10 0.10 94 1012.0
20260502110036 7 51 0.0 3.2 0.05 0.10 0.10 94 1011.6
20260502105516 7 93 0.0 3.2 0.05 0.10 0.10 93 1011.7
20260502105015 7 93 1.6 3.2 0.08 0.10 0.10 93 1011.8
20260502104532 7 9 0.0 4.8 0.08 0.10 0.10 93 1011.8
20260502104016 7 330 1.6 4.8 0.08 0.10 0.10 93 1011.7
20260502103514 7 22 1.6 3.2 0.08 0.10 0.10 93 1011.7
20260502103032 7 9 0.0 3.2 0.08 0.10 0.10 93 1011.6
20260502102515 7 93 1.6 4.8 0.08 0.10 0.10 93 1011.6
20260502102016 7 105 0.0 6.4 0.08 0.10 0.10 93 1011.6
20260502101533 7 80 1.6 6.4 0.08 0.10 0.10 93 1011.8
20260502101016 7 165 1.6 6.4 0.08 0.10 0.10 93 1011.8
20260502100517 7 85 1.6 4.8 0.05 0.08 0.08 93 1011.8
20260502091534 7 325 1.6 4.8 0.00 0.03 0.03 93 1011.6
20260502091017 8 19 1.6 4.8 0.00 0.03 0.03 93 1011.5
20260502090518 8 68 0.0 3.2 0.00 0.03 0.03 93 1011.7
20260502071530 7 321 1.6 4.8 0.00 0.00 0.00 91 1011.7
20260502071018 7 9 0.0 3.2 0.00 0.00 0.00 91 1011.6
20260502070518 7 0 0.0 3.2 0.00 0.00 0.00 91 1011.6
20260502070047 7 111 0.0 3.2 0.00 0.00 0.00 91 1011.5
20260502065518 7 0 0.0 3.2 0.00 0.00 0.00 91 1011.6
20260502065016 7 51 0.0 3.2 0.00 0.00 0.00 91 1011.6
20260502064543 7 61 0.0 3.2 0.00 0.00 0.00 91 1011.5
20260502064017 7 30 0.0 3.2 0.00 0.00 0.00 90 1011.5
20260502063518 7 51 1.6 3.2 0.00 0.00 0.00 90 1011.5
20260502063030 7 0 0.0 3.2 0.00 0.00 0.00 90 1011.5
20260502062517 7 93 0.0 3.2 0.00 0.00 0.00 90 1011.6
20260502062017 7 0 0.0 3.2 0.00 0.00 0.00 89 1011.6
20260502061531 8 9 0.0 3.2 0.00 0.00 0.00 89 1011.8
20260502061014 8 325 0.0 3.2 0.00 0.00 0.00 89 1011.7
20260502060517 8 0 0.0 3.2 0.00 0.00 0.00 89 1011.7
20260502060036 8 338 1.6 3.2 0.00 0.00 0.00 89 1011.7
20260502055517 8 51 1.6 3.2 0.00 0.00 0.00 89 1011.8
20260502055018 8 76 0.0 3.2 0.00 0.00 0.00 89 1011.8
20260502054532 8 76 0.0 3.2 0.00 0.00 0.00 88 1011.8
20260502054016 8 41 0.0 3.2 0.00 0.00 0.00 88 1011.9
20260502053515 8 316 1.6 3.2 0.00 0.00 0.00 88 1011.9
20260502053034 8 0 0.0 3.2 0.00 0.00 0.00 87 1011.8
20260502052517 8 123 1.6 3.2 0.00 0.00 0.00 87 1011.7
20260502052016 8 68 1.6 3.2 0.00 0.00 0.00 87 1011.8
20260502051534 8 105 0.0 3.2 0.00 0.00 0.00 87 1011.9
20260502051016 8 9 0.0 3.2 0.00 0.00 0.00 87 1011.9
20260502050517 8 22 0.0 3.2 0.00 0.00 0.00 86 1011.7
20260502050035 8 126 1.6 3.2 0.00 0.00 0.00 86 1011.7
20260502045515 8 0 1.6 4.8 0.00 0.00 0.00 86 1011.9
20260502045019 8 108 0.0 4.8 0.00 0.00 0.00 86 1011.8
20260502044530 8 9 1.6 4.8 0.00 0.00 0.00 85 1011.7
20260502044016 8 0 0.0 4.8 0.00 0.00 0.00 85 1012.0
20260502043515 8 131 1.6 4.8 0.00 0.00 0.00 85 1011.7
20260502043030 8 111 1.6 3.2 0.00 0.00 0.00 85 1011.9
20260502042515 9 93 0.0 3.2 0.00 0.00 0.00 85 1012.1
20260502042016 9 212 0.0 4.8 0.00 0.00 0.00 85 1012.2
20260502041534 9 0 0.0 4.8 0.00 0.00 0.00 85 1012.1
20260502041016 9 0 1.6 4.8 0.00 0.00 0.00 85 1011.9
20260502040515 9 0 0.0 8.0 0.00 0.00 0.00 85 1011.9
20260502040035 9 0 0.0 8.0 0.00 0.00 0.00 85 1012.1
20260502035514 9 178 1.6 8.0 0.00 0.00 0.00 85 1012.0
20260502035016 8 108 1.6 6.4 0.00 0.00 0.00 85 1012.0
20260502034537 8 149 1.6 6.4 0.00 0.00 0.00 85 1012.0
20260502034019 8 140 0.0 3.2 0.00 0.00 0.00 85 1011.9
20260502033515 8 0 0.0 3.2 0.00 0.00 0.00 85 1011.9
20260502033031 8 71 0.0 3.2 0.00 0.00 0.00 85 1012.0